www.pogodaiklimat.ru

Погода и климат >> Архив погоды >> Россия >> Якутия >> Оленек


ПОГОДА в Оленеке

АРХИВ ПОГОДЫ в Оленеке

Время (UTC), дата Ветер
(напр.,м/с)
 
Видим.   Явления Облачность Т
(С)
Тd
(С)
f
(%)
Тe
(С)
Тes
(С)
Комфортность P
(гПа)
Po
(гПа)
Тmin
(С)
Tmax
(С)
R
(мм)
R24
(мм)
S
(см)
03 14.10 З 2 н/о н/о -9.4 -11.1 87 -14 -14 1020.9 992.4
06 14.10 З 2 н/о н/о -8.8 -10.8 85 -13 -13 1022.0 993.5
09 14.10 СЗ 1 н/о н/о -8.1 -9.5 90 -11 -11 1023.1 994.7
12 14.10 С 2 н/о н/о -7.9 -9.1 91 -12 -12 1024.4 995.9 -7.3
15 14.10 СВ 1 н/о н/о -8.3 -9.4 92 -11 -11 1025.3 996.8
18 14.10 СЗ 2 н/о н/о -8.4 -9.4 92 -13 -13 1026.1 997.6
21 14.10 СЗ 1 н/о н/о -8.0 -8.8 94 -10 -10 1026.6 998.1
00 15.10 З 1 н/о н/о -8.0 -8.7 95 -10 -10 1027.8 999.2 -8.5
03 15.10 штиль 0 н/о н/о -6.6 -8.1 89 -7 -7 1028.1 999.7
06 15.10 штиль 0 н/о н/о -5.0 -7.1 85 -6 -6 1028.7 1000.4
09 15.10 З 1 н/о н/о -5.9 -6.7 94 -8 -8 1029.7 1001.3
12 15.10 З 1 н/о н/о -6.6 -7.3 95 -9 -9 1030.5 1002.0 -4.6
15 15.10 СВ 1 н/о н/о -7.2 -8.0 94 -10 -10 1031.1 1002.5
18 15.10 СЗ 1 н/о н/о -7.4 -8.3 93 -10 -10 1031.7 1003.1
21 15.10 штиль 0 н/о н/о -7.4 -8.2 94 -8 -8 1032.3 1003.7
00 16.10 В 1 50 км 10/6 300 м
[St Ac und]
-7.2 -8.1 93 -10 -10 1032.9 1004.3 -7.6 0.4 18
03 16.10 В 2 20 км слабый снег 10/8 360 м
[Sc As op]
-6.8 -8.0 91 -11 -11 1032.7 1004.1
06 16.10 В 3 50 км {снег} 8/4 600 м
[Sc Ac As]
-6.9 -8.9 86 -13 -13 1032.4 1003.8
09 16.10 В 4 50 км 3/3 600 м
[Sc]
-9.2 -10.8 88 -16 -16 1032.6 1003.7
12 16.10 В 6 н/о н/о -10.2 -11.0 94 -19 -19 1032.1 1003.2 -6.4
15 16.10 В 3 н/о н/о -12.4 -13.6 91 -18 -18 1031.7 1002.6
18 16.10 В 2 н/о н/о -14.7 -16.4 87 -20 -20 1031.0 1001.6
21 16.10 В 2 н/о н/о -18.1 -20.3 83 -24 -24 1030.0 1000.3
00 17.10 В 3 50 км 4/0
[Ci sp]
-21.0 -23.5 80 -29 -29 1029.1 999.0 -21.2 18
03 17.10 В 1 50 км 4/0
[Ci sp]
-17.3 -19.9 80 -20 -20 1027.8 998.2
06 17.10 В 2 50 км 5/0
[Ci sp]
-13.3 -15.3 85 -18 -18 1025.9 996.8
09 17.10 В 3 50 км 10/0
[Ci sp]
-14.7 -16.7 85 -21 -21 1025.1 995.9
12 17.10 В 3 н/о н/о -15.9 -17.8 85 -23 -23 1024.6 995.3 -13.0
15 17.10 В 1 н/о н/о -17.6 -19.6 84 -20 -20 1024.3 994.8
18 17.10 штиль 0 н/о н/о -18.1 -20.3 83 -18 -18 1023.5 993.9
21 17.10 ЮВ 1 н/о н/о -18.7 -20.9 83 -22 -22 1023.5 993.8
00 18.10 штиль 0 50 км 10/4 600 м
[Sc Ac und]
-16.6 -18.5 85 -17 -17 1023.6 994.2 -19.2 18
03 18.10 штиль 0 50 км 10/4 1000 м
[Sc Ac und]
-14.7 -16.7 85 -15 -15 1024.1 994.9
06 18.10 штиль 0 50 км 10/5 600 м
[Sc Ac und]
-13.2 -15.2 85 -13 -13 1024.1 995.0
09 18.10 З 1 10 км слабый снег 10/6 500 м
[Sc As op]
-12.6 -13.9 90 -15 -15 1024.7 995.7
12 18.10 З 1 н/о н/о -12.1 -13.6 89 -14 -14 1025.3 996.3 -12.1
15 18.10 З 1 н/о н/о -11.9 -13.3 89 -14 -14 1025.5 996.6
18 18.10 З 1 н/о н/о -11.7 -13.0 90 -14 -14 1025.8 996.9
21 18.10 З 1 н/о н/о -11.7 -13.1 89 -14 -14 1026.1 997.2
00 19.10 штиль 0 50 км в посл. час снег 10/4 600 м
[Sc As op]
-11.9 -13.2 90 -12 -12 1026.6 997.6 -12.5 0.4 18
03 19.10 штиль 0 50 км 10/3 600 м
[Sc As op]
-10.8 -12.1 90 -11 -11 1027.2 998.3
06 19.10 З 1 50 км 10/0
[As op]
-10.0 -11.3 90 -12 -12 1027.2 998.4
09 19.10 штиль 0 20 км 10/0
[As op]
-10.4 -11.7 90 -11 -11 1027.8 999.0
12 19.10 штиль 0 н/о н/о -10.6 -12.1 89 -11 -11 1028.4 999.5 -9.5
15 19.10 В 2 н/о н/о -11.1 -12.4 90 -16 -16 1028.0 999.1
18 19.10 В 1 н/о н/о -11.0 -12.3 90 -13 -13 1027.5 998.6
21 19.10 ЮВ 4 н/о н/о -11.7 -13.3 88 -19 -19 1026.9 997.9
00 20.10 В 4 н/о н/о -12.8 -14.8 85 -20 -20 1025.4 996.3 -13.0
03 20.10 В 3 50 км 10/0
[Ac As Ci sp]
-10.7 -13.5 80 -17 -17 1023.3 994.5
06 20.10 ЮВ 3 4000 м слабый снег 10/6 330 м
[Frnb As op]
-10.0 -12.0 85 -16 -16 1021.7 993.1
09 20.10 В 3 10 км слабый снег 10/4 300 м
[Frnb As op]
-10.0 -11.3 90 -16 -16 1020.9 992.3
12 20.10 В 3 н/о н/о -11.6 -12.8 91 -18 -18 1020.5 991.7 -9.9
15 20.10 В 3 н/о н/о -12.6 -13.9 90 -19 -19 1019.4 990.5
18 20.10 В 2 н/о н/о -14.4 -16.0 88 -19 -19 1019.0 989.9
21 20.10 В 2 н/о н/о -14.9 -16.6 87 -20 -20 1018.4 989.3
00 21.10 В 2 н/о н/о -14.2 -15.9 87 -19 -19 1017.5 988.6 -15.0

 

Местоположение метеостанции Оленек (Якутия, Россия): широта 68.50 долгота 112.40 высота над уровнем моря 220 м.

В архиве по умолчанию представлена погода в Оленеке за последнюю неделю. Архивные данные за месяц целиком и за предыдущие месяцы, начиная с января 2011 года, Вы можете получить, выбрав интересующий диапазон дат из раскрывающегося списка и нажав кнопку "Ввод!".

Внимание! Время в таблицах - всемирное. Для получения местного времени необходимо прибавить поправку, которая в Оленеке равна 9 ч.

Смотрите также архив погоды в соседних городах и на ближайших метеорологических станциях:

Погода в Джалинде (Якутия, Россия) (191 км)
Погода в Полярном (Якутия, Россия) (197 км)
Погода в Ярольине (Якутия, Россия) (224 км)
Погода в Сухане (Якутия, Россия) (240 км)
Погода в Шелагонцах (Якутия, Россия) (262 км)
Погода в Эйке (Якутия, Россия) (349 км)
Погода в Саскылахе (Якутия, Россия) (391 км)
Погода в Хабардино (Якутия, Россия) (434 км)
Погода в Джарджане (Якутия, Россия) (470 км)
Погода в Жиганске (Якутия, Россия) (498 км)

Пояснения к столбцам:

Ветер - указаны скорость ветра в м/с - средняя за 10 мин, порывы в срок и между сроками (в фигурных скобках) и направление, откуда дует ветер: С - северный, СВ - северо-восточный, В - восточный, ЮВ - юго-восточный, Ю - южный, ЮЗ - юго-западный, З - западный, СЗ - северо-западный.
Видимость - горизонтальная дальность видимости в метрах или километрах. При видимости от 1 до 10 км при отсутствии осадков обычно наблюдается дымка, при ухудшении видимости до 1 км и менее - туман. В сухую погоду видимость может ухудшаться дымом, пылью или мглою.
Явления - указаны атмосферные явления, наблюдавшиеся в срок или в последний час перед сроком; фигурными скобками обозначены явления, наблюдавшиеся между сроками (за 1-3 часа до срока); квадратными скобками обозначены град или гололедные отложения с указанием их диаметра в мм.
Облачность - указаны через наклонную черту общая и нижняя облачность в баллах и высота нижней границы облаков в метрах; квадратными скобками обозначены формы облаков: Ci - перистые, Cs - перисто-слоистые, Cc - перисто-кучевые, Ac - высококучевые, As - высокослоистые, Sc - слоисто-кучевые, Ns - слоисто-дождевые, Cu - кучевые, Cb - кучево-дождевые. Подробнее классификацию облаков см. в Атласе облаков (PDF).
T - Температура воздуха - температура, измеренная на высоте 2 м над землей.
Td - Температура точки росы - температура, при понижении до которой содержащийся в воздухе водяной пар достигнет насыщения.
f - Относительная влажность воздуха - влажноcть воздуха, измеренная на высоте 2 м над землей.
Te - Эффективная температура - температура, которую ощущает одетый по сезону человек в тени. Характеристика душности погоды. При расчете учитывается влияние влажности воздуха и скорости ветра на теплоощущения человека.
Tes - Эффективная температура на солнце - температура, которую ощущает человек, с поправкой на солнечный нагрев. Характеристика знойности погоды. Зависит от высоты солнца над горизонтом, облачности и скорости ветра. Ночью, в пасмурную погоду, а также при ветре 12 м/с и более поправка равна нулю.
P - Атмосферное давление - приведенное к уровню моря атмосферное давление.
Po - Атмосферное давление - измеренное на уровне метеостанции атмосферное давление.
Tmin - Минимальная температура - минимум температуры воздуха на высоте 2 м над землей.
Tmax - Максимальная температура - максимум температуры воздуха на высоте 2 м над землей.
R - Количество осадков - Количество выпавших осадков за период времени, мм. При наведении курсора мыши на число - период времени, за который выпало указанное количество осадков.
R24 - Количество осадков - Количество выпавших осадков за 24 часа, мм.
S - Снежный покров - Высота снежного покрова, см. При наведении курсора мыши на число - состояние снежного покрова и степень покрытия местности в баллах.